Showing default

DEIMOS 2, 40013

Orbit data source: Space-Track

DEIMOS 2, 40013 is a payload satellite owned by Elecnor Deimos (ES) in SSO that was launched on Thu, 19 Jun 2014 UTC via a DNEPR launch vehicle from the Orenburg, Russia (OREN). Payload-class satellites include a variety of spacecraft equipped with specific instruments for various scientific and technological missions. These include communications satellites like Starlink; space stations such as the ISS; scientific satellites like the Hubble; Earth observation satellites from companies like Planet Labs, Umbra, and HawkEye 360; GPS; miniature CubeSats for education and research; and military/defense satellites.

Loading next visibility...
Identifier
40013, 2014-033D
Orbit
SSO
Country
Flag of ESES / SPN
Related business
Manufacturer
ELDEC/SATREC
Mission
Operational Commercial Imaging
Bus & Motor
DEIMOS-2, Unknown motor
Mass
300 kg wet, 300 kg dry
Launch date (UTC)
2014-06-19 (11 years ago)
Launch vehicle
DNEPR
Launch site
Orenburg, Russia (OREN)
Object type
Payload
Rocket body
Debris
Shape & HBR
Hex Cyl + 3 Pan, 1.5 m
Radar Cross Section
2.520 m², Large (>1 m²)

Expand to show TLE details & history
Last TLE update: 16 hours ago

TLE from 16 hours ago
0 DEIMOS 2
1 40013U 14033D   25287.92804906  .00002623  00000-0  26024-3 0  9991
2 40013  97.6122 165.6659 0002332  76.9030 283.2450 14.92584566601124
Epoch: 2025-10-14T22:16Z
TLE epoch observation values (Epoch: 2025-10-14T22:16:23.438Z)
Latitude
-0.00002°
Longitude
167.8588°
Altitude
592.555 km
Speed
7.564 km/s
True Right ascension
11h 02m 39s
True Declination
0° 00' 00"
Sunlit
Object was in daylight at epoch
Visualization orbit readout
Latitude
Unknown
Longitude
Unknown
Altitude
Unknown
Speed
Unknown
Apparent Right ascension
Unknown
Apparent Declination
Unknown
Sunlit
N/A
Visualization observer readout
Local Sidereal Time
09:02:42
Azimuth
Unknown
Elevation
Unknown
Doppler factor
Unknown
Orbital elements
Apogee altitude
588.516 km
Perigee altitude
585.267 km
Semi-major axis
6,965.028 km
Eccentricity
0.00023
Inclination
97.6122°
RAAN
165.6659°
Arg. of periapsis
76.903°
True anomaly
283.21899°
Mean anomaly
283.245°
Eccentric anomaly
283.23199°
Mean motion
3.73387 °/min
Orbital period
96.41 mins
BSTAR
0.00026024
Loading maneuver chart data...
Computing Atmospheric mass density...
Loading historical data...
Loading historical data...
Loading historical data...
Loading historical data...
Loading historical data...
Loading historical data...
Loading historical data...

Documentation

Showing up to 5 results
|